Cosmos 1328 Rocket - Orbit

View from above orbital plane
View from above orbital plane
View from above satellite
View from above satellite

Ground track
Ground track

The orbit data is extracted from the following two-line orbital elements,

1 12988U 81117B   13144.19586351  .00000445  00000-0  50787-4 0  7416
2 12988 082.5256 025.4124 0019768 073.6390 072.7677 14.83694698699531
Epoch (UTC): 24 May 2013 04:42:02
Eccentricity: 0.0019768
inclination: 82.5256°
perigee height: 604 km
apogee height: 631 km
right ascension of ascending node: 25.4124°
argument of perigee: 73.6390°
revolutions per day: 14.83694698
mean anomaly at epoch: 72.7677°
orbit number at epoch: 69953

The dashed part of the orbit path shows where the satellite is in the earth's shadow,  

Developed and maintained by Chris Peat, Heavens-Above GmbH. Please read the updated FAQ before sending e-mail. Imprint. DLR